This is the latest recevied weather packets stored in our database for station/object KA8DUX-2. If no packets are shown the sender has not sent any weather packets the latest 10 day(s).
| Time | Temp. | Humidity | Pressure | Rain* | Wind** | Luminosity | Snow |
|---|---|---|---|---|---|---|---|
| 1778280570 | 17.78° C | 29% | 1005.9 hPa | 0 mm | - | 96 W/m² | - |
| 1778280268 | 17.78° C | 27% | 1005.8 hPa | 0 mm | - | 58 W/m² | - |
| 1778279965 | 17.78° C | 27% | 1005.9 hPa | 0 mm | - | 147 W/m² | - |
| 1778279663 | 18.33° C | 26% | 1005.8 hPa | 0 mm | - | 239 W/m² | - |
| 1778279360 | 18.33° C | 27% | 1005.8 hPa | 0 mm | - | 238 W/m² | - |
| 1778279057 | 18.33° C | 27% | 1005.6 hPa | 0 mm | - | 261 W/m² | - |
| 1778278753 | 18.89° C | 26% | 1006 hPa | 0 mm | - | 241 W/m² | - |
| 1778278449 | 18.33° C | 28% | 1005.9 hPa | 0 mm | - | 216 W/m² | - |
| 1778278145 | 17.78° C | 27% | 1005.9 hPa | 0 mm | - | 137 W/m² | - |
| 1778277842 | 17.78° C | 28% | 1005.9 hPa | 0 mm | - | 151 W/m² | - |
| 1778277538 | 17.78° C | 28% | 1006 hPa | 0 mm | - | 98 W/m² | - |
| 1778277235 | 18.33° C | 26% | 1005.8 hPa | 0 mm | - | 136 W/m² | - |
| 1778276932 | 17.78° C | 30% | 1005.8 hPa | 0 mm | - | 119 W/m² | - |
| 1778276630 | 18.33° C | 28% | 1005.9 hPa | 0 mm | - | 80 W/m² | - |
| 1778276326 | 18.89° C | 28% | 1006 hPa | 0 mm | - | 94 W/m² | - |
| 1778276023 | 18.89° C | 27% | 1005.9 hPa | 0 mm | - | 137 W/m² | - |
| 1778275718 | 18.33° C | 30% | 1006.2 hPa | 0 mm | - | 156 W/m² | - |
| 1778275416 | 17.78° C | 28% | 1006.2 hPa | 0 mm | - | 182 W/m² | - |
| 1778275111 | 18.33° C | 28% | 1006.2 hPa | 0 mm | - | 285 W/m² | - |
| 1778274807 | 18.89° C | 26% | 1006 hPa | 0 mm | - | 229 W/m² | - |
| 1778274505 | 18.33° C | 27% | 1006 hPa | 0 mm | - | 317 W/m² | - |
| 1778274201 | 18.33° C | 28% | 1006.2 hPa | 0 mm | - | 354 W/m² | - |
| 1778273898 | 18.89° C | 27% | 1006.3 hPa | 0 mm | - | 372 W/m² | - |
| 1778273595 | 18.89° C | 27% | 1006.2 hPa | 0 mm | - | 439 W/m² | - |
| 1778273291 | 18.89° C | 26% | 1006.5 hPa | 0 mm | - | 524 W/m² | - |
* Rain latest hour (hover to see other rain measurements)
** Current wind speed in m/s (hover to see current wind gust speed)